User: anonymous   Login
Location: Fort Frances
(48.6170°N, 93.4170°W)
Time: 18:47:28
(UTC-05:00)
Language:

Iridium 53 - Orbit

View from above orbital plane
View from above orbital plane
View from above satellite
View from above satellite

Ground track
Ground track

The orbit data is extracted from the following two-line orbital elements,

1 25173U 98010E   16176.43534495  .00000119  00000-0  35356-4 0  9991
2 25173  86.3975 139.9257 0002205  85.9755 274.1692 14.34218187960490
Epoch (UTC): 24 June 2016 10:26:53
Eccentricity: 0.0002205
inclination: 86.3975°
perigee height: 776 km
apogee height: 779 km
right ascension of ascending node: 139.9257°
argument of perigee: 85.9755°
revolutions per day: 14.34218187
mean anomaly at epoch: 274.1692°
orbit number at epoch: 96049

The dashed part of the orbit path shows where the satellite is in the earth's shadow,  

DLR